Probability
0 0 0 0 0 0 0 0 0 0 0 0 0 0 0 0 0 0 0 0 0 0 0 0 0 0 0 0 0 0 0 0 0 0 0 0 0 0
0 0 0 0 0 0 0 0 0 0 0 0 0 0 0 0 0 0 0 0 0 0 0 0 0 0 0 0 0 0 0 0 0 0 0 0 0 0
0 0 0 0 0 0 0 0 0 0 0 0 0 0 0 0 0 0 0 0 0 0 0 0 0 0 0 0 0 0 0 0 0 0 0 0 0 0
0 0 0 0 0 0 0 0 0 0 0 0 0 0 0 0 0 0 0 0 0 0 0 0 0 0 0 0 0 0 0 0 0 0 0 0 0 0
0 0 0 0 0 0 0 0 0 0 0 0 0 0 0 0 0 0 0 0 0 0 0 0 0 0 0 0 0 0 0 0 0 0 0 0 0 0
0 0 0 0 0 0 0 0 0 0 0 0 0 0 0 0 0 0 0 0 0 0 0 0 0 0 0 0 0 0 0 0 0 0 0 0 0 0
0 0 0 0 0 0 0 0 0 0 0 0 0 0 0 0 0 0 0 0 0 0 0 0 0 0 0 0 0 0 0 0 0 0 0 0 0 0
0 0 0 0 0 0 0 0 0 0 0 0 0 0 0 0 0 0 0 0 0 0 0 0 0 0 0 0 0 0 0 0 0 0 0 0 0 0
0 0 0 0 0 0 0 0 0 0 0 0 0 0 0 0 0 0 0 0 0 0 0 0 0 0 0 0 0 0 0 0 0 0 0 0 0 0
0 0 0 0 0 0 0 0 0 0 0 0 0 0 0 0 0 0 0 0 0 0 0 0 0 0 0 0 0 0 0 0 0 0 0 0 0 0
0 0 0 0 0 0 0 0 0 0 0 0 0 0 0 0 0 0 0 0 0 0 0 0 0 0 0 0 0 0 0 0 0 0 0 0 0 0
0 0 0 0 0 0 0 0 0 0 0 0 0 0 0 0 0 0 0 0 0 0 0 0 0 0 0 0 0 0 0 0 0 0 0 0 0 0
0 0 0 0 0 0 0 0 0 0 0 0 0 0 0 0 0 0 0 0 0 0 0 0 0 0 0 0 0 0 0 0 0 0 0 0 0 0
0 0 0 0 0 0 0 0 0 0 0 0 0 0 0 0 0 0 0 0 0 0 0 0 0 0 0 0 0 0 0 0 0 0 0 0 0 0
0 0 0 0 0 0 0 0 0 0 0 0 0 0 0 0 0 0 0 0 0 0 0 0 0 0 0 0 0 0 0 0 0 0 0 0 0 0
0 0 0 0 0 0 0 0 0 0 0 0 0 0 0 0 0 0 0 0 0 0 0 0 0 0 0 0 0 0 0 0 0 0 0 0 0 0
0 0 0 0 0 0 0 0 0 0 0 0 0 0 0 0 0 0 0 0 0 0 0 0 0 0 0 0 0 0 0 0 0 0 0 0 0 0
0 0 0 0 0 0 0 0 0 0 0 0 0 0 0 0 0 0 0 0 0 0 0 0 0 0 0 0 0 0 0 0 0 0 0 0 0 0
0 0 0 0 0 0 0 0 0 0 0 0 0 0 0 0 0 0 0 0 0 0 0 0 0 0 0 0 0 0 0 0 0 0 0 0 0 0
0 0 0 0 0 0 0 0 0 0 0 0 0 0 0 0 0 0 0 0 0 0 0 0 0 0 0 0 0 0 0 0 0 0 0 0 0 0
0 0 0 0 0 0 0 0 0 0 0 0 0 0 0 0 0 0 0 0 0 0 0 0 0 0 0 0 0 0 0 0 0 0 0 0 0 0
0 0 0 0 0 0 0 0 0 0 0 0 0 0 0 0 0 0 0 0 0 0 0 0 0 0 0 0 0 0 0 0 0 0 0 0 0 0
0 0 0 0 0 0 0 0 0 0 0 0 0 0 0 0 0 0 0 0 0 0 0 0 0 0 0 0 0 0 0 0 0 0 0 0 0 0
Wind_Speed
5 5 4 3 2 2 2 3 3 2 3 3 2 2 1 1 4 2 3 10 12 14 14 15 16 16 17 17 18 19 19 19 19 19 20 21 21 21
4 5 4 2 2 2 2 2 2 3 3 3 2 2 2 2 4 3 4 10 12 14 14 15 15 16 17 17 18 18 18 19 18 19 19 20 20 20
5 5 5 3 3 2 2 2 2 2 3 3 1 1 1 2 3 3 3 3 5 12 14 15 15 16 17 17 17 18 17 17 18 18 18 19 19 19
7 6 5 3 3 2 2 2 2 2 2 3 2 1 2 2 3 3 4 4 4 10 13 14 15 16 17 17 17 17 17 17 17 17 18 18 18 18
7 7 5 5 4 3 3 2 2 1 1 1 2 1 1 2 3 3 4 4 5 7 11 12 14 16 17 17 17 16 16 16 17 17 17 17 17 17
6 5 5 5 5 4 3 3 2 2 1 0 1 1 2 2 2 3 4 3 5 4 7 10 13 15 16 17 16 16 16 16 16 17 16 16 16 16
5 5 4 5 5 4 3 3 3 2 1 1 1 1 2 2 2 2 3 4 4 3 5 5 6 5 7 12 14 15 15 16 15 16 16 16 16 16
6 5 4 5 5 5 5 5 5 3 2 1 1 1 2 2 2 2 2 3 4 3 3 5 3 5 5 5 11 15 16 16 16 16 16 16 16 16
7 6 4 4 5 4 5 5 4 4 3 3 1 2 2 2 1 2 2 2 4 4 3 4 3 4 5 7 14 15 16 16 17 17 16 17 16 16
6 6 6 5 5 6 5 4 3 2 3 2 1 1 1 0 0 1 2 3 4 3 2 3 3 5 6 5 11 15 17 17 17 17 17 17 17 15
5 6 6 5 8 9 6 5 3 2 4 5 5 4 5 5 4 2 3 3 4 3 1 2 4 5 5 4 7 15 17 17 17 17 17 17 17 15
5 5 7 7 9 9 6 5 4 2 2 3 4 4 4 5 6 2 1 1 2 3 2 3 3 4 6 4 4 6 7 13 17 17 17 17 17 8
5 4 3 9 9 9 7 4 5 4 2 2 2 2 2 2 3 2 1 1 1 3 3 3 3 3 3 6 5 4 4 5 6 8 12 17 17 12
6 4 5 10 9 9 6 6 7 6 2 2 1 1 2 2 3 3 2 2 2 4 5 3 2 3 4 6 6 5 5 5 4 5 5 12 13 15
6 10 10 11 9 6 7 8 6 3 2 1 0 1 1 2 2 2 3 3 3 4 4 3 3 4 4 5 6 5 5 5 4 5 6 7 6 6
7 10 12 11 8 7 6 4 2 2 2 1 0 1 1 2 2 2 2 3 3 4 5 5 5 5 4 5 5 6 5 5 6 7 7 7 6 5
9 6 4 4 3 3 2 2 2 2 2 1 1 1 1 2 2 2 2 2 2 4 5 5 5 5 7 6 4 5 5 6 6 7 8 8 7 5
10 6 5 4 4 3 3 2 1 1 1 1 1 1 1 1 2 2 2 2 3 4 4 4 5 6 5 4 5 5 5 5 7 7 6 7 8 6
6 5 5 4 4 3 3 2 1 1 1 1 1 0 1 1 2 2 3 3 3 4 4 4 4 4 6 7 7 4 5 7 7 7 6 6 8 9
4 5 5 4 4 3 3 2 2 1 1 1 0 0 1 1 2 2 2 3 4 4 4 4 3 4 4 5 6 7 10 8 7 8 7 6 7 10
5 5 4 4 4 3 3 3 2 2 1 1 0 0 0 1 1 2 3 6 4 3 5 5 6 10 4 3 5 6 6 10 11 7 7 7 6 5
5 5 4 4 4 4 3 3 2 2 1 1 1 1 1 1 2 2 3 3 3 4 4 5 6 5 3 3 6 8 7 8 10 12 9 7 5 6
6 5 5 4 4 3 3 3 3 2 2 1 1 1 1 1 2 2 3 3 3 4 5 5 4 3 3 4 5 6 8 9 7 7 6 11 14 13
Wind_Direction
197 198 202 203 189 190 174 166 172 238 268 274 292 322 316 308 324 328 309 312 318 317 316 317 317 317 318 319 318 317 317 316 316 315 314 313 311 311
190 193 201 195 181 176 174 172 172 189 242 262 255 302 328 339 341 336 313 326 324 321 320 322 324 324 323 322 321 319 318 318 319 318 316 317 316 315
186 187 196 181 173 178 166 163 175 171 230 274 276 315 335 330 335 333 326 324 324 325 325 325 327 328 327 326 324 322 323 324 324 322 321 320 319 320
186 182 191 171 172 170 163 173 180 178 194 257 285 312 316 329 328 325 334 336 319 322 329 330 332 330 329 327 325 323 324 325 323 323 322 322 322 322
180 180 180 165 178 174 170 179 177 155 159 203 270 312 315 333 332 326 329 323 322 324 332 334 333 331 330 328 326 325 326 325 324 323 321 321 322 322
165 167 167 171 180 177 175 178 156 140 129 173 276 305 304 321 329 317 321 324 317 321 331 330 328 331 331 329 327 327 327 326 324 323 322 323 323 321
148 150 154 154 159 162 158 161 148 144 136 150 270 311 305 320 316 307 312 317 308 317 325 316 314 313 322 324 326 327 329 330 330 329 328 327 325 322
150 144 138 141 147 146 140 136 139 145 164 167 220 266 281 283 295 319 316 330 312 313 314 300 306 308 312 308 325 335 337 338 338 336 333 330 327 325
151 147 137 137 131 123 116 102 93 95 118 147 184 242 266 270 293 306 295 290 278 294 314 293 302 305 313 318 329 337 339 340 338 336 334 332 330 330
145 148 145 143 142 133 119 103 83 66 73 96 146 214 289 280 192 286 280 297 288 292 321 294 305 309 313 307 322 338 342 341 340 338 335 333 332 334
133 138 141 143 144 134 125 120 97 58 58 67 62 49 32 22 32 33 360 352 323 309 338 311 306 312 301 297 318 334 339 340 340 338 336 334 332 335
125 132 140 142 141 138 136 136 131 115 77 55 43 33 23 11 21 36 353 334 318 306 318 322 308 327 315 298 301 312 321 328 335 336 337 334 332 332
139 139 142 141 137 135 129 133 132 125 108 87 54 20 8 1 354 353 348 219 257 272 295 319 301 302 284 301 303 298 305 311 316 319 330 332 332 333
146 143 139 137 131 128 122 118 114 107 97 85 56 9 346 335 329 329 325 304 254 255 277 286 275 289 298 300 296 303 308 301 302 304 311 323 327 328
137 141 136 131 125 120 116 116 110 103 103 91 44 315 306 306 322 331 333 330 318 301 301 289 279 280 272 277 291 297 308 305 306 312 312 312 308 309
124 130 127 122 111 111 111 103 95 116 120 133 261 316 334 346 345 339 336 338 337 321 311 306 301 291 280 276 276 288 292 297 310 316 314 306 299 292
126 112 108 115 113 108 99 95 92 88 83 69 68 16 358 354 340 341 344 345 335 318 317 317 314 299 276 267 281 284 294 299 303 314 317 313 304 293
131 134 138 140 145 147 141 127 110 109 98 87 72 23 354 338 331 335 342 339 322 309 309 312 327 332 330 303 248 275 291 300 309 311 308 309 308 305
131 143 148 153 154 153 150 147 151 142 122 114 94 5 335 328 331 335 338 331 320 311 308 312 327 336 334 326 304 287 300 311 312 311 306 302 300 302
138 149 153 155 154 153 152 149 145 132 122 128 130 326 324 323 327 328 326 320 318 316 316 318 322 320 310 303 298 296 305 306 309 310 309 302 286 290
149 149 150 151 151 151 151 149 149 153 152 160 187 240 279 305 314 314 315 326 332 319 319 312 300 317 303 296 302 300 299 311 316 308 308 310 309 306
150 150 151 150 151 152 151 150 151 155 160 173 206 244 265 277 293 302 310 314 312 307 303 297 306 319 324 314 310 307 308 313 319 323 321 316 314 317
152 150 150 152 152 151 152 155 160 170 175 181 200 235 264 285 287 291 298 302 308 312 313 313 318 320 307 297 301 305 310 317 319 326 318 328 329 318